����,10���Ԉړ��ώZ�J��(mm),1���Ԉړ��ώZ�J��(mm),���J��(mm),�݌v�J��(mm)
2021-08-09T00:00:00+09:00,0,0,30,30
2021-08-09T00:01:00+09:00,0,0,0,30
2021-08-09T00:02:00+09:00,0,0,0,30
2021-08-09T00:03:00+09:00,0,0,0,30
2021-08-09T00:04:00+09:00,0,0,0,30
2021-08-09T00:05:00+09:00,0,0,0,30
2021-08-09T00:06:00+09:00,0,0,0,30
2021-08-09T00:07:00+09:00,0,0,0,30
2021-08-09T00:08:00+09:00,0,0,0,30
2021-08-09T00:09:00+09:00,0,0,0,30
2021-08-09T00:10:00+09:00,0,0,0,30
2021-08-09T00:11:00+09:00,0,0,0,30
2021-08-09T00:12:00+09:00,0,0,0,30
2021-08-09T00:13:00+09:00,0,0,0,30
2021-08-09T00:14:00+09:00,0,0,0,30
2021-08-09T00:15:00+09:00,0,0,0,30
2021-08-09T00:16:00+09:00,0,0,0,30
2021-08-09T00:17:00+09:00,0,0,0,30
2021-08-09T00:18:00+09:00,0,0,0,30
2021-08-09T00:19:00+09:00,0,0,0,30
2021-08-09T00:20:00+09:00,0,0,0,30
2021-08-09T00:21:00+09:00,0,0,0,30
2021-08-09T00:22:00+09:00,0,0,0,30
2021-08-09T00:23:00+09:00,0,0,0,30
2021-08-09T00:24:00+09:00,0,0,0,30
2021-08-09T00:25:00+09:00,0,0,0,30
2021-08-09T00:26:00+09:00,0,0,0,30
2021-08-09T00:27:00+09:00,0,0,0,30
2021-08-09T00:28:00+09:00,0,0,0,30
2021-08-09T00:29:00+09:00,0,0,0,30
2021-08-09T00:30:00+09:00,0,0,0,30
2021-08-09T00:31:00+09:00,0,0,0,30
2021-08-09T00:32:00+09:00,0,0,0,30
2021-08-09T00:33:00+09:00,0,0,0,30
2021-08-09T00:34:00+09:00,0,0,0,30
2021-08-09T00:35:00+09:00,0,0,0,30
2021-08-09T00:36:00+09:00,0,0,0,30
2021-08-09T00:37:00+09:00,0,0,0,30
2021-08-09T00:38:00+09:00,0,0,0,30
2021-08-09T00:39:00+09:00,0,0,0,30
2021-08-09T00:40:00+09:00,0,0,0,30
2021-08-09T00:41:00+09:00,0,0,0,30
2021-08-09T00:42:00+09:00,0,0,0,30
2021-08-09T00:43:00+09:00,0,0,0,30
2021-08-09T00:44:00+09:00,0,0,0,30
2021-08-09T00:45:00+09:00,0,0,0,30
2021-08-09T00:46:00+09:00,0,0,0,30
2021-08-09T00:47:00+09:00,0,0,0,30
2021-08-09T00:48:00+09:00,0,0,0,30
2021-08-09T00:49:00+09:00,0,0,0,30
2021-08-09T00:50:00+09:00,0,0,0,30
2021-08-09T00:51:00+09:00,0,0,0,30
2021-08-09T00:52:00+09:00,0,0,0,30
2021-08-09T00:53:00+09:00,0,0,0,30
2021-08-09T00:54:00+09:00,0,0,0,30
2021-08-09T00:55:00+09:00,0,0,0,30
2021-08-09T00:56:00+09:00,0,0,0,30
2021-08-09T00:57:00+09:00,0,0,0,30
2021-08-09T00:58:00+09:00,0,0,0,30
2021-08-09T00:59:00+09:00,0,0,0,30
2021-08-09T01:00:00+09:00,0,0,0,30
2021-08-09T01:01:00+09:00,0,0,0,30
2021-08-09T01:02:00+09:00,0,0,0,30
2021-08-09T01:03:00+09:00,0,0,0,30
2021-08-09T01:04:00+09:00,0,0,0,30
2021-08-09T01:05:00+09:00,0,0,0,30
2021-08-09T01:06:00+09:00,0,0,0,30
2021-08-09T01:07:00+09:00,0,0,0,30
2021-08-09T01:08:00+09:00,0,0,0,30
2021-08-09T01:09:00+09:00,0,0,0,30
2021-08-09T01:10:00+09:00,0,0,0,30
2021-08-09T01:11:00+09:00,0,0,0,30
2021-08-09T01:12:00+09:00,0,0,0,30
2021-08-09T01:13:00+09:00,0,0,0,30
2021-08-09T01:14:00+09:00,0,0,0,30
2021-08-09T01:15:00+09:00,0,0,0,30
2021-08-09T01:16:00+09:00,0,0,0,30
2021-08-09T01:17:00+09:00,0,0,0,30
2021-08-09T01:18:00+09:00,0,0,0,30
2021-08-09T01:19:00+09:00,0,0,0,30
2021-08-09T01:20:00+09:00,0,0,0,30
2021-08-09T01:21:00+09:00,0,0,0,30
2021-08-09T01:22:00+09:00,0,0,0,30
2021-08-09T01:23:00+09:00,0,0,0,30
2021-08-09T01:24:00+09:00,0,0,0,30
2021-08-09T01:25:00+09:00,0,0,0,30
2021-08-09T01:26:00+09:00,0,0,0,30
2021-08-09T01:27:00+09:00,0,0,0,30
2021-08-09T01:28:00+09:00,0,0,0,30
2021-08-09T01:29:00+09:00,0,0,0,30
2021-08-09T01:30:00+09:00,0.5,0.5,0.5,30.5
2021-08-09T01:31:00+09:00,0.5,0.5,0.5,30.5
2021-08-09T01:32:00+09:00,0.5,0.5,0.5,30.5
2021-08-09T01:33:00+09:00,0.5,0.5,0.5,30.5
2021-08-09T01:34:00+09:00,1,1,1,31
2021-08-09T01:35:00+09:00,1,1,1,31
2021-08-09T01:36:00+09:00,1,1,1,31
2021-08-09T01:37:00+09:00,1,1,1,31
2021-08-09T01:38:00+09:00,1.5,1.5,1.5,31.5
2021-08-09T01:39:00+09:00,1.5,1.5,1.5,31.5
2021-08-09T01:40:00+09:00,1,1.5,1.5,31.5
2021-08-09T01:41:00+09:00,1.5,2,2,32
2021-08-09T01:42:00+09:00,1.5,2,2,32
2021-08-09T01:43:00+09:00,1.5,2,2,32
2021-08-09T01:44:00+09:00,1,2,2,32
2021-08-09T01:45:00+09:00,1,2,2,32
2021-08-09T01:46:00+09:00,1,2,2,32
2021-08-09T01:47:00+09:00,1,2,2,32
2021-08-09T01:48:00+09:00,0.5,2,2,32
2021-08-09T01:49:00+09:00,0.5,2,2,32
2021-08-09T01:50:00+09:00,0.5,2,2,32
2021-08-09T01:51:00+09:00,0,2,2,32
2021-08-09T01:52:00+09:00,0,2,2,32
2021-08-09T01:53:00+09:00,0,2,2,32
2021-08-09T01:54:00+09:00,0,2,2,32
2021-08-09T01:55:00+09:00,0,2,2,32
2021-08-09T01:56:00+09:00,0,2,2,32
2021-08-09T01:57:00+09:00,0,2,2,32
2021-08-09T01:58:00+09:00,0,2,2,32
2021-08-09T01:59:00+09:00,0,2,2,32
2021-08-09T02:00:00+09:00,0,2,2,32
2021-08-09T02:01:00+09:00,0,2,2,32
2021-08-09T02:02:00+09:00,0,2,2,32
2021-08-09T02:03:00+09:00,0,2,2,32
2021-08-09T02:04:00+09:00,0,2,2,32
2021-08-09T02:05:00+09:00,0,2,2,32
2021-08-09T02:06:00+09:00,0,2,2,32
2021-08-09T02:07:00+09:00,0,2,2,32
2021-08-09T02:08:00+09:00,0,2,2,32
2021-08-09T02:09:00+09:00,0,2,2,32
2021-08-09T02:10:00+09:00,0,2,2,32
2021-08-09T02:11:00+09:00,0,2,2,32
2021-08-09T02:12:00+09:00,0,2,2,32
2021-08-09T02:13:00+09:00,0,2,2,32
2021-08-09T02:14:00+09:00,0,2,2,32
2021-08-09T02:15:00+09:00,0,2,2,32
2021-08-09T02:16:00+09:00,0,2,2,32
2021-08-09T02:17:00+09:00,0,2,2,32
2021-08-09T02:18:00+09:00,0,2,2,32
2021-08-09T02:19:00+09:00,0,2,2,32
2021-08-09T02:20:00+09:00,0,2,2,32
2021-08-09T02:21:00+09:00,0,2,2,32
2021-08-09T02:22:00+09:00,0,2,2,32
2021-08-09T02:23:00+09:00,0,2,2,32
2021-08-09T02:24:00+09:00,0,2,2,32
2021-08-09T02:25:00+09:00,0,2,2,32
2021-08-09T02:26:00+09:00,0,2,2,32
2021-08-09T02:27:00+09:00,0,2,2,32
2021-08-09T02:28:00+09:00,0,2,2,32
2021-08-09T02:29:00+09:00,0,2,2,32
2021-08-09T02:30:00+09:00,0,1.5,2,32
2021-08-09T02:31:00+09:00,0,1.5,2,32
2021-08-09T02:32:00+09:00,0,1.5,2,32
2021-08-09T02:33:00+09:00,0,1.5,2,32
2021-08-09T02:34:00+09:00,0,1,2,32
2021-08-09T02:35:00+09:00,0.5,1.5,2.5,32.5
2021-08-09T02:36:00+09:00,0.5,1.5,2.5,32.5
2021-08-09T02:37:00+09:00,1,2,3,33
2021-08-09T02:38:00+09:00,1,1.5,3,33
2021-08-09T02:39:00+09:00,2,2.5,4,34
2021-08-09T02:40:00+09:00,2.5,3,4.5,34.5
2021-08-09T02:41:00+09:00,3,3,5,35
2021-08-09T02:42:00+09:00,3.5,3.5,5.5,35.5
2021-08-09T02:43:00+09:00,3.5,3.5,5.5,35.5
2021-08-09T02:44:00+09:00,4,4,6,36
2021-08-09T02:45:00+09:00,3.5,4,6,36
2021-08-09T02:46:00+09:00,3.5,4,6,36
2021-08-09T02:47:00+09:00,3,4,6,36
2021-08-09T02:48:00+09:00,3.5,4.5,6.5,36.5
2021-08-09T02:49:00+09:00,2.5,4.5,6.5,36.5
2021-08-09T02:50:00+09:00,2.5,5,7,37
2021-08-09T02:51:00+09:00,2,5,7,37
2021-08-09T02:52:00+09:00,2,5.5,7.5,37.5
2021-08-09T02:53:00+09:00,2.5,6,8,38
2021-08-09T02:54:00+09:00,2,6,8,38
2021-08-09T02:55:00+09:00,2,6,8,38
2021-08-09T02:56:00+09:00,2,6,8,38
2021-08-09T02:57:00+09:00,2,6,8,38
2021-08-09T02:58:00+09:00,2,6.5,8.5,38.5
2021-08-09T02:59:00+09:00,2,6.5,8.5,38.5
2021-08-09T03:00:00+09:00,1.5,6.5,8.5,38.5
2021-08-09T03:01:00+09:00,1.5,6.5,8.5,38.5
2021-08-09T03:02:00+09:00,1,6.5,8.5,38.5
2021-08-09T03:03:00+09:00,1,7,9,39
2021-08-09T03:04:00+09:00,1,7,9,39
2021-08-09T03:05:00+09:00,1,7,9,39
2021-08-09T03:06:00+09:00,1,7,9,39
2021-08-09T03:07:00+09:00,1.5,7.5,9.5,39.5
2021-08-09T03:08:00+09:00,1,7.5,9.5,39.5
2021-08-09T03:09:00+09:00,1,7.5,9.5,39.5
2021-08-09T03:10:00+09:00,1,7.5,9.5,39.5
2021-08-09T03:11:00+09:00,1,7.5,9.5,39.5
2021-08-09T03:12:00+09:00,1,7.5,9.5,39.5
2021-08-09T03:13:00+09:00,1,8,10,40
2021-08-09T03:14:00+09:00,1,8,10,40
2021-08-09T03:15:00+09:00,1,8,10,40
2021-08-09T03:16:00+09:00,1.5,8.5,10.5,40.5
2021-08-09T03:17:00+09:00,1.5,9,11,41
2021-08-09T03:18:00+09:00,2,9.5,11.5,41.5
2021-08-09T03:19:00+09:00,2.5,10,12,42
2021-08-09T03:20:00+09:00,2.5,10,12,42
2021-08-09T03:21:00+09:00,3,10.5,12.5,42.5
2021-08-09T03:22:00+09:00,3,10.5,12.5,42.5
2021-08-09T03:23:00+09:00,2.5,10.5,12.5,42.5
2021-08-09T03:24:00+09:00,2.5,10.5,12.5,42.5
2021-08-09T03:25:00+09:00,2.5,10.5,12.5,42.5
2021-08-09T03:26:00+09:00,2,10.5,12.5,42.5
2021-08-09T03:27:00+09:00,1.5,10.5,12.5,42.5
2021-08-09T03:28:00+09:00,1,10.5,12.5,42.5
2021-08-09T03:29:00+09:00,1,11,13,43
2021-08-09T03:30:00+09:00,1,11,13,43
2021-08-09T03:31:00+09:00,0.5,11,13,43
2021-08-09T03:32:00+09:00,1,11.5,13.5,43.5
2021-08-09T03:33:00+09:00,1,11.5,13.5,43.5
2021-08-09T03:34:00+09:00,1.5,12,14,44
2021-08-09T03:35:00+09:00,2,12,14.5,44.5
2021-08-09T03:36:00+09:00,2,12,14.5,44.5
2021-08-09T03:37:00+09:00,2,11.5,14.5,44.5
2021-08-09T03:38:00+09:00,2.5,12,15,45
2021-08-09T03:39:00+09:00,2,11,15,45
2021-08-09T03:40:00+09:00,2,10.5,15,45
2021-08-09T03:41:00+09:00,2.5,10.5,15.5,45.5
2021-08-09T03:42:00+09:00,2.5,10.5,16,46
2021-08-09T03:43:00+09:00,2.5,10.5,16,46
2021-08-09T03:44:00+09:00,2.5,10.5,16.5,46.5
2021-08-09T03:45:00+09:00,2.5,11,17,47
2021-08-09T03:46:00+09:00,2.5,11,17,47
2021-08-09T03:47:00+09:00,2.5,11,17,47
2021-08-09T03:48:00+09:00,2,10.5,17,47
2021-08-09T03:49:00+09:00,2,10.5,17,47
2021-08-09T03:50:00+09:00,2,10,17,47
2021-08-09T03:51:00+09:00,1.5,10,17,47
2021-08-09T03:52:00+09:00,1,9.5,17,47
2021-08-09T03:53:00+09:00,1,9,17,47
2021-08-09T03:54:00+09:00,1,9.5,17.5,47.5
2021-08-09T03:55:00+09:00,0.5,9.5,17.5,47.5
2021-08-09T03:56:00+09:00,0.5,9.5,17.5,47.5
2021-08-09T03:57:00+09:00,1,10,18,48
2021-08-09T03:58:00+09:00,1,9.5,18,48
2021-08-09T03:59:00+09:00,1.5,10,18.5,48.5
2021-08-09T04:00:00+09:00,1.5,10,18.5,48.5
2021-08-09T04:01:00+09:00,1.5,10,18.5,48.5
2021-08-09T04:02:00+09:00,2,10.5,19,49
2021-08-09T04:03:00+09:00,2,10,19,49
2021-08-09T04:04:00+09:00,2,10.5,19.5,49.5
2021-08-09T04:05:00+09:00,2.5,11,20,50
2021-08-09T04:06:00+09:00,2.5,11,20,50
2021-08-09T04:07:00+09:00,2,10.5,20,50
2021-08-09T04:08:00+09:00,2,10.5,20,50
2021-08-09T04:09:00+09:00,1.5,10.5,20,50
2021-08-09T04:10:00+09:00,1.5,10.5,20,50
2021-08-09T04:11:00+09:00,1.5,10.5,20,50
2021-08-09T04:12:00+09:00,1,10.5,20,50
2021-08-09T04:13:00+09:00,1.5,10.5,20.5,50.5
2021-08-09T04:14:00+09:00,1,10.5,20.5,50.5
2021-08-09T04:15:00+09:00,0.5,10.5,20.5,50.5
2021-08-09T04:16:00+09:00,0.5,10,20.5,50.5
2021-08-09T04:17:00+09:00,0.5,9.5,20.5,50.5
2021-08-09T04:18:00+09:00,0.5,9,20.5,50.5
2021-08-09T04:19:00+09:00,0.5,8.5,20.5,50.5
2021-08-09T04:20:00+09:00,0.5,8.5,20.5,50.5
2021-08-09T04:21:00+09:00,0.5,8,20.5,50.5
2021-08-09T04:22:00+09:00,0.5,8,20.5,50.5
2021-08-09T04:23:00+09:00,0,8,20.5,50.5
2021-08-09T04:24:00+09:00,0,8,20.5,50.5
2021-08-09T04:25:00+09:00,0,8,20.5,50.5
2021-08-09T04:26:00+09:00,0,8,20.5,50.5
2021-08-09T04:27:00+09:00,0,8,20.5,50.5
2021-08-09T04:28:00+09:00,0,8,20.5,50.5
2021-08-09T04:29:00+09:00,0,7.5,20.5,50.5
2021-08-09T04:30:00+09:00,0,7.5,20.5,50.5
2021-08-09T04:31:00+09:00,0,7.5,20.5,50.5
2021-08-09T04:32:00+09:00,0,7,20.5,50.5
2021-08-09T04:33:00+09:00,0.5,7.5,21,51
2021-08-09T04:34:00+09:00,0.5,7,21,51
2021-08-09T04:35:00+09:00,0.5,6.5,21,51
2021-08-09T04:36:00+09:00,0.5,6.5,21,51
2021-08-09T04:37:00+09:00,0.5,6.5,21,51
2021-08-09T04:38:00+09:00,0.5,6,21,51
2021-08-09T04:39:00+09:00,0.5,6,21,51
2021-08-09T04:40:00+09:00,1,6.5,21.5,51.5
2021-08-09T04:41:00+09:00,1.5,6.5,22,52
2021-08-09T04:42:00+09:00,1.5,6,22,52
2021-08-09T04:43:00+09:00,1.5,6.5,22.5,52.5
2021-08-09T04:44:00+09:00,1.5,6,22.5,52.5
2021-08-09T04:45:00+09:00,1.5,5.5,22.5,52.5
2021-08-09T04:46:00+09:00,1.5,5.5,22.5,52.5
2021-08-09T04:47:00+09:00,2,6,23,53
2021-08-09T04:48:00+09:00,2,6,23,53
2021-08-09T04:49:00+09:00,2,6,23,53
2021-08-09T04:50:00+09:00,1.5,6,23,53
2021-08-09T04:51:00+09:00,1,6,23,53
2021-08-09T04:52:00+09:00,1.5,6.5,23.5,53.5
2021-08-09T04:53:00+09:00,1,6.5,23.5,53.5
2021-08-09T04:54:00+09:00,1,6,23.5,53.5
2021-08-09T04:55:00+09:00,1,6,23.5,53.5
2021-08-09T04:56:00+09:00,1,6,23.5,53.5
2021-08-09T04:57:00+09:00,0.5,5.5,23.5,53.5
2021-08-09T04:58:00+09:00,0.5,5.5,23.5,53.5
2021-08-09T04:59:00+09:00,1,5.5,24,54
2021-08-09T05:00:00+09:00,1,5.5,24,54
2021-08-09T05:01:00+09:00,1,5.5,24,54
2021-08-09T05:02:00+09:00,0.5,5,24,54
2021-08-09T05:03:00+09:00,0.5,5,24,54
2021-08-09T05:04:00+09:00,0.5,4.5,24,54
2021-08-09T05:05:00+09:00,1,4.5,24.5,54.5
2021-08-09T05:06:00+09:00,1,4.5,24.5,54.5
2021-08-09T05:07:00+09:00,1,4.5,24.5,54.5
2021-08-09T05:08:00+09:00,1,4.5,24.5,54.5
2021-08-09T05:09:00+09:00,0.5,4.5,24.5,54.5
2021-08-09T05:10:00+09:00,1,5,25,55
2021-08-09T05:11:00+09:00,1,5,25,55
2021-08-09T05:12:00+09:00,1,5,25,55
2021-08-09T05:13:00+09:00,1,4.5,25,55
2021-08-09T05:14:00+09:00,1,4.5,25,55
2021-08-09T05:15:00+09:00,0.5,4.5,25,55
2021-08-09T05:16:00+09:00,1,5,25.5,55.5
2021-08-09T05:17:00+09:00,1,5,25.5,55.5
2021-08-09T05:18:00+09:00,1,5,25.5,55.5
2021-08-09T05:19:00+09:00,1,5,25.5,55.5
2021-08-09T05:20:00+09:00,0.5,5,25.5,55.5
2021-08-09T05:21:00+09:00,0.5,5,25.5,55.5
2021-08-09T05:22:00+09:00,0.5,5,25.5,55.5
2021-08-09T05:23:00+09:00,0.5,5,25.5,55.5
2021-08-09T05:24:00+09:00,0.5,5,25.5,55.5
2021-08-09T05:25:00+09:00,0.5,5,25.5,55.5
2021-08-09T05:26:00+09:00,0,5,25.5,55.5
2021-08-09T05:27:00+09:00,0,5,25.5,55.5
2021-08-09T05:28:00+09:00,0,5,25.5,55.5
2021-08-09T05:29:00+09:00,0,5,25.5,55.5
2021-08-09T05:30:00+09:00,0,5,25.5,55.5
2021-08-09T05:31:00+09:00,0,5,25.5,55.5
2021-08-09T05:32:00+09:00,0,5,25.5,55.5
2021-08-09T05:33:00+09:00,0,4.5,25.5,55.5
2021-08-09T05:34:00+09:00,0,4.5,25.5,55.5
2021-08-09T05:35:00+09:00,0,4.5,25.5,55.5
2021-08-09T05:36:00+09:00,0,4.5,25.5,55.5
2021-08-09T05:37:00+09:00,0,4.5,25.5,55.5
2021-08-09T05:38:00+09:00,0,4.5,25.5,55.5
2021-08-09T05:39:00+09:00,0,4.5,25.5,55.5
2021-08-09T05:40:00+09:00,0,4,25.5,55.5
2021-08-09T05:41:00+09:00,0,3.5,25.5,55.5
2021-08-09T05:42:00+09:00,0.5,4,26,56
2021-08-09T05:43:00+09:00,0.5,3.5,26,56
2021-08-09T05:44:00+09:00,0.5,3.5,26,56
2021-08-09T05:45:00+09:00,0.5,3.5,26,56
2021-08-09T05:46:00+09:00,0.5,3.5,26,56
2021-08-09T05:47:00+09:00,0.5,3,26,56
2021-08-09T05:48:00+09:00,0.5,3,26,56
2021-08-09T05:49:00+09:00,0.5,3,26,56
2021-08-09T05:50:00+09:00,0.5,3,26,56
2021-08-09T05:51:00+09:00,0.5,3,26,56
2021-08-09T05:52:00+09:00,0,2.5,26,56
2021-08-09T05:53:00+09:00,0,2.5,26,56
2021-08-09T05:54:00+09:00,0,2.5,26,56
2021-08-09T05:55:00+09:00,0,2.5,26,56
2021-08-09T05:56:00+09:00,0,2.5,26,56
2021-08-09T05:57:00+09:00,0,2.5,26,56
2021-08-09T05:58:00+09:00,0,2.5,26,56
2021-08-09T05:59:00+09:00,0,2,26,56
2021-08-09T06:00:00+09:00,0,2,26,56
2021-08-09T06:01:00+09:00,0,2,26,56
2021-08-09T06:02:00+09:00,0,2,26,56
2021-08-09T06:03:00+09:00,0,2,26,56
2021-08-09T06:04:00+09:00,0,2,26,56
2021-08-09T06:05:00+09:00,0.5,2,26.5,56.5
2021-08-09T06:06:00+09:00,0.5,2,26.5,56.5
2021-08-09T06:07:00+09:00,0.5,2,26.5,56.5
2021-08-09T06:08:00+09:00,0.5,2,26.5,56.5
2021-08-09T06:09:00+09:00,0.5,2,26.5,56.5
2021-08-09T06:10:00+09:00,0.5,1.5,26.5,56.5
2021-08-09T06:11:00+09:00,0.5,1.5,26.5,56.5
2021-08-09T06:12:00+09:00,0.5,1.5,26.5,56.5
2021-08-09T06:13:00+09:00,0.5,1.5,26.5,56.5
2021-08-09T06:14:00+09:00,0.5,1.5,26.5,56.5
2021-08-09T06:15:00+09:00,0,1.5,26.5,56.5
2021-08-09T06:16:00+09:00,0,1,26.5,56.5
2021-08-09T06:17:00+09:00,0,1,26.5,56.5
2021-08-09T06:18:00+09:00,0,1,26.5,56.5
2021-08-09T06:19:00+09:00,0,1,26.5,56.5
2021-08-09T06:20:00+09:00,0,1,26.5,56.5
2021-08-09T06:21:00+09:00,0,1,26.5,56.5
2021-08-09T06:22:00+09:00,0,1,26.5,56.5
2021-08-09T06:23:00+09:00,0,1,26.5,56.5
2021-08-09T06:24:00+09:00,0,1,26.5,56.5
2021-08-09T06:25:00+09:00,0,1,26.5,56.5
2021-08-09T06:26:00+09:00,0.5,1.5,27,57
2021-08-09T06:27:00+09:00,0.5,1.5,27,57
2021-08-09T06:28:00+09:00,0.5,1.5,27,57
2021-08-09T06:29:00+09:00,0.5,1.5,27,57
2021-08-09T06:30:00+09:00,0.5,1.5,27,57
2021-08-09T06:31:00+09:00,0.5,1.5,27,57
2021-08-09T06:32:00+09:00,0.5,1.5,27,57
2021-08-09T06:33:00+09:00,0.5,1.5,27,57
2021-08-09T06:34:00+09:00,0.5,1.5,27,57
2021-08-09T06:35:00+09:00,0.5,1.5,27,57
2021-08-09T06:36:00+09:00,0,1.5,27,57
2021-08-09T06:37:00+09:00,0.5,2,27.5,57.5
2021-08-09T06:38:00+09:00,0.5,2,27.5,57.5
2021-08-09T06:39:00+09:00,0.5,2,27.5,57.5
2021-08-09T06:40:00+09:00,0.5,2,27.5,57.5
2021-08-09T06:41:00+09:00,0.5,2,27.5,57.5
2021-08-09T06:42:00+09:00,0.5,1.5,27.5,57.5
2021-08-09T06:43:00+09:00,0.5,1.5,27.5,57.5
2021-08-09T06:44:00+09:00,0.5,1.5,27.5,57.5
2021-08-09T06:45:00+09:00,0.5,1.5,27.5,57.5
2021-08-09T06:46:00+09:00,0.5,1.5,27.5,57.5
2021-08-09T06:47:00+09:00,0,1.5,27.5,57.5
2021-08-09T06:48:00+09:00,0.5,2,28,58
2021-08-09T06:49:00+09:00,0.5,2,28,58
2021-08-09T06:50:00+09:00,0.5,2,28,58
2021-08-09T06:51:00+09:00,0.5,2,28,58
2021-08-09T06:52:00+09:00,0.5,2,28,58
2021-08-09T06:53:00+09:00,0.5,2,28,58
2021-08-09T06:54:00+09:00,0.5,2,28,58
2021-08-09T06:55:00+09:00,0.5,2,28,58
2021-08-09T06:56:00+09:00,0.5,2,28,58
2021-08-09T06:57:00+09:00,0.5,2,28,58
2021-08-09T06:58:00+09:00,0,2,28,58
2021-08-09T06:59:00+09:00,0,2,28,58
2021-08-09T07:00:00+09:00,0,2,28,58
2021-08-09T07:01:00+09:00,0,2,28,58
2021-08-09T07:02:00+09:00,0,2,28,58
2021-08-09T07:03:00+09:00,0,2,28,58
2021-08-09T07:04:00+09:00,0,2,28,58
2021-08-09T07:05:00+09:00,0,1.5,28,58
2021-08-09T07:06:00+09:00,0,1.5,28,58
2021-08-09T07:07:00+09:00,0,1.5,28,58
2021-08-09T07:08:00+09:00,0,1.5,28,58
2021-08-09T07:09:00+09:00,0,1.5,28,58
2021-08-09T07:10:00+09:00,0,1.5,28,58
2021-08-09T07:11:00+09:00,0,1.5,28,58
2021-08-09T07:12:00+09:00,0,1.5,28,58
2021-08-09T07:13:00+09:00,0,1.5,28,58
2021-08-09T07:14:00+09:00,0,1.5,28,58
2021-08-09T07:15:00+09:00,0,1.5,28,58
2021-08-09T07:16:00+09:00,0,1.5,28,58
2021-08-09T07:17:00+09:00,0,1.5,28,58
2021-08-09T07:18:00+09:00,0,1.5,28,58
2021-08-09T07:19:00+09:00,0,1.5,28,58
2021-08-09T07:20:00+09:00,0.5,2,28.5,58.5
2021-08-09T07:21:00+09:00,0.5,2,28.5,58.5
2021-08-09T07:22:00+09:00,0.5,2,28.5,58.5
2021-08-09T07:23:00+09:00,1,2.5,29,59
2021-08-09T07:24:00+09:00,1,2.5,29,59
2021-08-09T07:25:00+09:00,1,2.5,29,59
2021-08-09T07:26:00+09:00,1,2,29,59
2021-08-09T07:27:00+09:00,1,2,29,59
2021-08-09T07:28:00+09:00,1,2,29,59
2021-08-09T07:29:00+09:00,1,2,29,59
2021-08-09T07:30:00+09:00,0.5,2,29,59
2021-08-09T07:31:00+09:00,0.5,2,29,59
2021-08-09T07:32:00+09:00,1,2.5,29.5,59.5
2021-08-09T07:33:00+09:00,0.5,2.5,29.5,59.5
2021-08-09T07:34:00+09:00,0.5,2.5,29.5,59.5
2021-08-09T07:35:00+09:00,0.5,2.5,29.5,59.5
2021-08-09T07:36:00+09:00,0.5,2.5,29.5,59.5
2021-08-09T07:37:00+09:00,0.5,2,29.5,59.5
2021-08-09T07:38:00+09:00,0.5,2,29.5,59.5
2021-08-09T07:39:00+09:00,0.5,2,29.5,59.5
2021-08-09T07:40:00+09:00,0.5,2,29.5,59.5
2021-08-09T07:41:00+09:00,0.5,2,29.5,59.5
2021-08-09T07:42:00+09:00,0,2,29.5,59.5
2021-08-09T07:43:00+09:00,0,2,29.5,59.5
2021-08-09T07:44:00+09:00,0,2,29.5,59.5
2021-08-09T07:45:00+09:00,0,2,29.5,59.5
2021-08-09T07:46:00+09:00,0,2,29.5,59.5
2021-08-09T07:47:00+09:00,0,2,29.5,59.5
2021-08-09T07:48:00+09:00,0,1.5,29.5,59.5
2021-08-09T07:49:00+09:00,0,1.5,29.5,59.5
2021-08-09T07:50:00+09:00,0,1.5,29.5,59.5
2021-08-09T07:51:00+09:00,0.5,2,30,60
2021-08-09T07:52:00+09:00,0.5,2,30,60
2021-08-09T07:53:00+09:00,0.5,2,30,60
2021-08-09T07:54:00+09:00,0.5,2,30,60
2021-08-09T07:55:00+09:00,0.5,2,30,60
2021-08-09T07:56:00+09:00,0.5,2,30,60
2021-08-09T07:57:00+09:00,0.5,2,30,60
2021-08-09T07:58:00+09:00,0.5,2,30,60
2021-08-09T07:59:00+09:00,0.5,2,30,60
2021-08-09T08:00:00+09:00,0.5,2,30,60
2021-08-09T08:01:00+09:00,0,2,30,60
2021-08-09T08:02:00+09:00,0,2,30,60
2021-08-09T08:03:00+09:00,0.5,2.5,30.5,60.5
2021-08-09T08:04:00+09:00,0.5,2.5,30.5,60.5
2021-08-09T08:05:00+09:00,0.5,2.5,30.5,60.5
2021-08-09T08:06:00+09:00,0.5,2.5,30.5,60.5
2021-08-09T08:07:00+09:00,0.5,2.5,30.5,60.5
2021-08-09T08:08:00+09:00,0.5,2.5,30.5,60.5
2021-08-09T08:09:00+09:00,0.5,2.5,30.5,60.5
2021-08-09T08:10:00+09:00,0.5,2.5,30.5,60.5
2021-08-09T08:11:00+09:00,0.5,2.5,30.5,60.5
2021-08-09T08:12:00+09:00,0.5,2.5,30.5,60.5
2021-08-09T08:13:00+09:00,0,2.5,30.5,60.5
2021-08-09T08:14:00+09:00,0,2.5,30.5,60.5
2021-08-09T08:15:00+09:00,0,2.5,30.5,60.5
2021-08-09T08:16:00+09:00,0,2.5,30.5,60.5
2021-08-09T08:17:00+09:00,0.5,3,31,61
2021-08-09T08:18:00+09:00,0.5,3,31,61
2021-08-09T08:19:00+09:00,0.5,3,31,61
2021-08-09T08:20:00+09:00,0.5,2.5,31,61
2021-08-09T08:21:00+09:00,0.5,2.5,31,61
2021-08-09T08:22:00+09:00,0.5,2.5,31,61
2021-08-09T08:23:00+09:00,0.5,2,31,61
2021-08-09T08:24:00+09:00,0.5,2,31,61
2021-08-09T08:25:00+09:00,0.5,2,31,61
2021-08-09T08:26:00+09:00,0.5,2,31,61
2021-08-09T08:27:00+09:00,0,2,31,61
2021-08-09T08:28:00+09:00,0,2,31,61
2021-08-09T08:29:00+09:00,0,2,31,61
2021-08-09T08:30:00+09:00,0,2,31,61
2021-08-09T08:31:00+09:00,0,2,31,61
2021-08-09T08:32:00+09:00,0,1.5,31,61
2021-08-09T08:33:00+09:00,0,1.5,31,61
2021-08-09T08:34:00+09:00,0,1.5,31,61
2021-08-09T08:35:00+09:00,0,1.5,31,61
2021-08-09T08:36:00+09:00,0,1.5,31,61
2021-08-09T08:37:00+09:00,0,1.5,31,61
2021-08-09T08:38:00+09:00,0,1.5,31,61
2021-08-09T08:39:00+09:00,0,1.5,31,61
2021-08-09T08:40:00+09:00,0,1.5,31,61
2021-08-09T08:41:00+09:00,0,1.5,31,61
2021-08-09T08:42:00+09:00,0,1.5,31,61
2021-08-09T08:43:00+09:00,0,1.5,31,61
2021-08-09T08:44:00+09:00,0,1.5,31,61
2021-08-09T08:45:00+09:00,0,1.5,31,61
2021-08-09T08:46:00+09:00,0,1.5,31,61
2021-08-09T08:47:00+09:00,0,1.5,31,61
2021-08-09T08:48:00+09:00,0,1.5,31,61
2021-08-09T08:49:00+09:00,0,1.5,31,61
2021-08-09T08:50:00+09:00,0,1.5,31,61
2021-08-09T08:51:00+09:00,0,1,31,61
2021-08-09T08:52:00+09:00,0,1,31,61
2021-08-09T08:53:00+09:00,0,1,31,61
2021-08-09T08:54:00+09:00,0,1,31,61
2021-08-09T08:55:00+09:00,0,1,31,61
2021-08-09T08:56:00+09:00,0,1,31,61
2021-08-09T08:57:00+09:00,0,1,31,61
2021-08-09T08:58:00+09:00,0,1,31,61
2021-08-09T08:59:00+09:00,0,1,31,61
2021-08-09T09:00:00+09:00,0,1,31,61
2021-08-09T09:01:00+09:00,0,1,31,61
2021-08-09T09:02:00+09:00,0,1,31,61
2021-08-09T09:03:00+09:00,0,0.5,31,61
2021-08-09T09:04:00+09:00,0,0.5,31,61
2021-08-09T09:05:00+09:00,0,0.5,31,61
2021-08-09T09:06:00+09:00,0,0.5,31,61
2021-08-09T09:07:00+09:00,0,0.5,31,61
2021-08-09T09:08:00+09:00,0,0.5,31,61
2021-08-09T09:09:00+09:00,0,0.5,31,61
2021-08-09T09:10:00+09:00,0,0.5,31,61
2021-08-09T09:11:00+09:00,0,0.5,31,61
2021-08-09T09:12:00+09:00,0,0.5,31,61
2021-08-09T09:13:00+09:00,0,0.5,31,61
2021-08-09T09:14:00+09:00,0,0.5,31,61
2021-08-09T09:15:00+09:00,0,0.5,31,61
2021-08-09T09:16:00+09:00,0,0.5,31,61
2021-08-09T09:17:00+09:00,0.5,0.5,31.5,61.5
2021-08-09T09:18:00+09:00,0.5,0.5,31.5,61.5
2021-08-09T09:19:00+09:00,0.5,0.5,31.5,61.5
2021-08-09T09:20:00+09:00,0.5,0.5,31.5,61.5
2021-08-09T09:21:00+09:00,0.5,0.5,31.5,61.5
2021-08-09T09:22:00+09:00,0.5,0.5,31.5,61.5
2021-08-09T09:23:00+09:00,0.5,0.5,31.5,61.5
2021-08-09T09:24:00+09:00,0.5,0.5,31.5,61.5
2021-08-09T09:25:00+09:00,0.5,0.5,31.5,61.5
2021-08-09T09:26:00+09:00,0.5,0.5,31.5,61.5
2021-08-09T09:27:00+09:00,0,0.5,31.5,61.5
2021-08-09T09:28:00+09:00,0,0.5,31.5,61.5
2021-08-09T09:29:00+09:00,0,0.5,31.5,61.5
2021-08-09T09:30:00+09:00,0,0.5,31.5,61.5
2021-08-09T09:31:00+09:00,0,0.5,31.5,61.5
2021-08-09T09:32:00+09:00,0.5,1,32,62
2021-08-09T09:33:00+09:00,0.5,1,32,62
2021-08-09T09:34:00+09:00,0.5,1,32,62
2021-08-09T09:35:00+09:00,0.5,1,32,62
2021-08-09T09:36:00+09:00,0.5,1,32,62
2021-08-09T09:37:00+09:00,0.5,1,32,62
2021-08-09T09:38:00+09:00,0.5,1,32,62
2021-08-09T09:39:00+09:00,0.5,1,32,62
2021-08-09T09:40:00+09:00,0.5,1,32,62
2021-08-09T09:41:00+09:00,0.5,1,32,62
2021-08-09T09:42:00+09:00,0,1,32,62
2021-08-09T09:43:00+09:00,0,1,32,62
2021-08-09T09:44:00+09:00,0,1,32,62
2021-08-09T09:45:00+09:00,0,1,32,62
2021-08-09T09:46:00+09:00,0,1,32,62
2021-08-09T09:47:00+09:00,0.5,1.5,32.5,62.5
2021-08-09T09:48:00+09:00,0.5,1.5,32.5,62.5
2021-08-09T09:49:00+09:00,0.5,1.5,32.5,62.5
2021-08-09T09:50:00+09:00,0.5,1.5,32.5,62.5
2021-08-09T09:51:00+09:00,0.5,1.5,32.5,62.5
2021-08-09T09:52:00+09:00,0.5,1.5,32.5,62.5
2021-08-09T09:53:00+09:00,0.5,1.5,32.5,62.5
2021-08-09T09:54:00+09:00,0.5,1.5,32.5,62.5
2021-08-09T09:55:00+09:00,0.5,1.5,32.5,62.5
2021-08-09T09:56:00+09:00,0.5,1.5,32.5,62.5
2021-08-09T09:57:00+09:00,0,1.5,32.5,62.5
2021-08-09T09:58:00+09:00,0,1.5,32.5,62.5
2021-08-09T09:59:00+09:00,0,1.5,32.5,62.5
2021-08-09T10:00:00+09:00,0.5,2,33,63
2021-08-09T10:01:00+09:00,0.5,2,33,63
2021-08-09T10:02:00+09:00,0.5,2,33,63
2021-08-09T10:03:00+09:00,0.5,2,33,63
2021-08-09T10:04:00+09:00,0.5,2,33,63
2021-08-09T10:05:00+09:00,0.5,2,33,63
2021-08-09T10:06:00+09:00,1,2.5,33.5,63.5
2021-08-09T10:07:00+09:00,1,2.5,33.5,63.5
2021-08-09T10:08:00+09:00,1,2.5,33.5,63.5
2021-08-09T10:09:00+09:00,1,2.5,33.5,63.5
2021-08-09T10:10:00+09:00,0.5,2.5,33.5,63.5
2021-08-09T10:11:00+09:00,1,3,34,64
2021-08-09T10:12:00+09:00,1,3,34,64
2021-08-09T10:13:00+09:00,1.5,3.5,34.5,64.5
2021-08-09T10:14:00+09:00,1.5,3.5,34.5,64.5
2021-08-09T10:15:00+09:00,1.5,3.5,34.5,64.5
2021-08-09T10:16:00+09:00,1,3.5,34.5,64.5